Temp
74 78 81 82 82 82 82 83 83 82 82 82 81 82 81 81 81 81 81 81 81 81 82 82 82 82 82 82 82 82 81 81 80 80 80 80 80 80 80 80 80 79 80
77 80 81 82 82 82 83 82 82 82 81 81 81 81 81 81 81 81 81 81 81 81 81 81 82 82 82 82 82 82 82 81 80 79 79 79 79 80 80 80 80 80 80
78 80 81 82 82 82 82 82 82 81 81 81 81 81 81 81 81 81 81 81 81 81 81 81 81 81 81 82 82 81 80 80 79 79 79 77 78 80 80 80 80 80 80
80 80 80 81 81 82 82 82 81 81 81 81 81 81 81 81 80 81 81 80 81 81 80 80 80 80 81 81 81 80 80 79 78 78 76 77 79 80 80 80 80 80 80
80 80 80 81 81 81 81 81 81 81 81 81 81 81 80 80 81 81 81 81 80 80 80 80 80 80 80 81 81 80 79 79 77 76 76 76 77 79 79 79 79 79 79
78 80 80 81 81 81 81 81 81 81 80 80 81 81 81 80 80 80 80 80 80 79 79 79 79 80 80 80 79 79 79 78 76 73 73 76 76 80 80 78 78 78 79
79 80 80 81 81 81 81 81 81 80 80 80 80 80 81 80 80 80 80 80 79 79 79 79 80 80 80 80 79 79 78 76 73 72 72 75 76 79 80 79 78 78 79
80 79 80 81 81 81 81 81 80 80 80 80 80 80 80 80 80 79 79 79 79 79 79 80 79 80 80 79 79 79 77 76 74 71 72 74 77 78 78 78 78 78 78
79 77 77 77 79 80 80 79 80 80 80 80 80 80 80 79 79 79 79 79 78 79 78 78 78 79 80 79 79 77 76 75 71 72 74 73 76 77 77 77 77 77 77
76 77 74 74 76 75 75 79 79 79 78 79 79 79 78 78 78 78 78 78 78 78 78 79 78 79 79 79 78 77 76 74 71 75 76 77 78 78 77 76 76 76 76
72 72 74 73 73 72 72 74 78 79 78 77 76 77 75 71 73 73 75 77 78 78 78 78 78 78 77 78 77 75 74 71 71 74 75 76 77 78 77 77 77 76 76
69 71 72 74 73 72 75 71 71 71 70 70 70 68 67 66 67 74 74 76 77 77 77 77 78 77 75 73 75 74 71 69 72 74 75 76 77 77 77 76 76 76 76
70 70 72 73 72 72 71 68 68 68 68 68 68 67 67 66 66 66 67 69 69 73 72 73 72 70 69 75 73 72 70 69 73 74 75 76 76 77 76 76 75 75 75
69 69 72 72 72 71 69 68 68 68 68 68 67 66 66 64 64 64 65 65 66 67 67 66 67 70 70 76 72 70 68 68 68 74 73 75 76 76 76 76 75 75 75
68 71 70 71 70 71 69 68 67 68 68 68 67 66 66 64 62 64 64 64 65 66 66 65 66 67 73 75 72 69 68 64 64 67 73 74 75 75 76 76 75 75 74
69 69 70 70 70 70 69 67 67 68 67 67 66 65 65 64 64 64 64 64 65 67 67 68 68 68 67 75 71 69 68 66 63 63 71 70 74 75 75 75 75 75 74
69 71 70 70 69 68 67 67 66 67 66 66 65 65 66 66 64 64 63 63 64 66 69 68 67 66 69 73 69 68 67 65 63 62 63 63 66 72 74 74 74 74 74
66 68 69 74 69 68 67 66 67 67 65 66 66 65 66 65 64 64 65 63 66 65 65 70 67 65 67 68 68 68 67 67 64 63 64 63 62 64 70 73 74 74 73
65 65 67 67 68 67 66 66 67 68 67 66 66 66 65 65 64 64 66 65 67 65 62 69 64 66 65 66 67 66 67 66 65 67 62 63 63 62 62 71 72 72 73
62 63 65 66 66 68 64 64 65 67 67 67 66 65 65 65 65 64 65 66 66 64 64 66 66 64 63 65 69 65 67 64 63 64 61 65 62 62 61 62 61 66 72
61 61 63 64 65 63 61 62 62 65 66 66 65 67 65 65 66 65 65 65 65 62 68 68 64 64 62 64 60 58 58 60 61 63 63 60 60 61 60 60 59 60 64
58 59 61 63 63 63 61 62 62 64 65 64 64 65 65 65 67 66 66 65 65 69 68 67 66 62 59 61 58 55 54 56 59 60 60 63 59 60 61 61 59 58 58
60 59 61 64 62 62 63 62 63 62 62 61 61 61 63 65 65 66 67 65 66 71 69 68 66 66 59 58 64 55 51 50 54 57 57 59 59 57 57 59 59 59 57
60 62 63 65 62 63 63 62 61 61 60 59 60 62 61 62 65 67 68 66 67 70 68 68 67 65 63 62 58 63 58 57 52 51 54 55 56 58 56 56 56 57 56
61 61 61 62 63 63 62 62 60 58 57 58 59 60 59 59 62 63 66 65 63 64 69 70 66 67 65 61 58 58 56 56 55 52 50 51 53 52 52 52 52 52 53
60 60 60 60 60 61 61 61 59 57 58 58 59 59 58 57 57 59 62 63 64 62 65 67 67 67 66 63 61 60 57 55 54 54 49 48 49 49 50 49 50 50 51
MSLP
1012.49 1012.27 1012.53 1012.84 1013.08 1013.14 1013.42 1013.71 1013.87 1014.08 1014.22 1014.32 1014.50 1014.61 1014.77 1014.99 1015.00 1014.93 1014.99 1015.01 1015.03 1015.02 1015.06 1015.09 1015.14 1015.20 1015.25 1015.33 1015.36 1015.31 1015.38 1015.44 1015.46 1015.39 1015.25 1014.94 1014.71 1014.53 1014.42 1014.09 1013.82 1013.55 1013.25
1011.83 1012.08 1012.37 1012.79 1012.98 1013.21 1013.49 1013.66 1013.95 1014.29 1014.42 1014.58 1014.69 1014.83 1014.90 1014.93 1015.20 1015.23 1015.14 1015.17 1015.31 1015.32 1015.41 1015.45 1015.45 1015.49 1015.56 1015.69 1015.68 1015.60 1015.78 1015.90 1015.90 1015.89 1015.83 1015.46 1015.18 1015.02 1014.92 1014.66 1014.33 1014.14 1013.86
1011.59 1011.89 1012.40 1012.68 1013.00 1013.25 1013.49 1013.80 1013.96 1014.34 1014.76 1014.75 1014.89 1015.04 1015.07 1015.20 1015.13 1015.41 1015.39 1015.41 1015.49 1015.60 1015.71 1015.79 1015.94 1015.90 1015.82 1015.93 1015.98 1016.06 1016.24 1016.19 1016.32 1016.36 1016.17 1016.08 1015.76 1015.49 1015.34 1015.06 1014.88 1014.66 1014.41
1011.28 1011.74 1012.23 1012.62 1013.05 1013.30 1013.54 1013.85 1014.12 1014.32 1014.65 1014.97 1015.16 1015.18 1015.28 1015.31 1015.41 1015.33 1015.60 1015.62 1015.72 1015.89 1016.00 1016.13 1016.27 1016.28 1016.22 1016.26 1016.28 1016.53 1016.63 1016.59 1016.88 1017.00 1016.88 1016.73 1016.35 1016.15 1015.92 1015.68 1015.52 1015.34 1015.14
1011.31 1011.59 1012.16 1012.58 1013.10 1013.33 1013.61 1013.89 1014.23 1014.47 1014.66 1014.85 1015.26 1015.34 1015.53 1015.49 1015.60 1015.66 1015.67 1015.86 1015.96 1016.21 1016.28 1016.47 1016.52 1016.61 1016.64 1016.59 1016.54 1016.86 1017.01 1017.21 1017.43 1017.51 1017.37 1017.23 1016.97 1016.81 1016.64 1016.50 1016.27 1016.02 1015.84
1011.47 1011.66 1012.16 1012.67 1013.14 1013.42 1013.64 1013.88 1014.16 1014.44 1014.76 1014.98 1015.09 1015.46 1015.70 1015.79 1015.78 1015.87 1016.01 1016.12 1016.27 1016.39 1016.61 1016.75 1016.79 1016.86 1016.89 1017.02 1017.16 1017.34 1017.37 1017.79 1018.04 1018.09 1017.99 1017.81 1017.59 1017.29 1017.15 1017.04 1016.88 1016.64 1016.49
1011.51 1011.54 1011.97 1012.41 1012.85 1013.21 1013.54 1013.85 1014.12 1014.37 1014.67 1015.02 1015.28 1015.40 1015.65 1015.91 1016.01 1016.10 1016.22 1016.30 1016.42 1016.57 1016.76 1017.01 1017.03 1017.10 1017.14 1017.32 1017.59 1017.78 1017.93 1018.25 1018.61 1018.70 1018.55 1018.41 1018.27 1018.03 1017.74 1017.63 1017.44 1017.22 1017.11
1010.91 1011.36 1011.74 1012.04 1012.29 1012.83 1013.24 1013.73 1013.94 1014.33 1014.64 1014.97 1015.24 1015.53 1015.75 1015.86 1016.10 1016.31 1016.45 1016.49 1016.61 1016.69 1016.86 1017.07 1017.26 1017.40 1017.46 1017.75 1017.91 1018.10 1018.27 1018.59 1019.02 1019.29 1019.28 1019.03 1018.99 1018.75 1018.58 1018.39 1018.11 1017.95 1017.81
1011.00 1011.42 1011.73 1012.13 1012.41 1012.70 1013.20 1013.70 1014.01 1014.29 1014.61 1014.93 1015.29 1015.50 1015.82 1016.01 1016.19 1016.43 1016.56 1016.68 1016.76 1016.86 1017.03 1017.26 1017.54 1017.73 1017.73 1017.98 1018.31 1018.57 1018.69 1018.86 1019.31 1019.66 1019.67 1019.66 1019.55 1019.40 1019.37 1019.16 1018.86 1018.68 1018.50
1011.44 1011.62 1011.81 1011.96 1012.40 1012.91 1013.22 1013.49 1014.07 1014.36 1014.74 1015.09 1015.39 1015.59 1015.79 1016.16 1016.33 1016.65 1016.72 1016.91 1016.94 1017.13 1017.23 1017.37 1017.60 1017.84 1017.99 1018.34 1018.76 1018.85 1019.16 1019.35 1019.67 1019.93 1020.04 1019.97 1019.91 1019.83 1019.97 1019.94 1019.74 1019.61 1019.43
1012.01 1012.01 1012.26 1012.36 1012.67 1012.95 1013.20 1013.55 1013.88 1014.30 1014.82 1015.24 1015.46 1015.88 1016.13 1016.39 1016.73 1016.87 1017.05 1017.19 1017.18 1017.34 1017.39 1017.50 1017.63 1017.86 1018.01 1018.49 1019.10 1019.25 1019.74 1020.25 1020.32 1020.38 1020.47 1020.49 1020.44 1020.34 1020.44 1020.57 1020.41 1020.29 1020.10
1012.02 1012.32 1012.29 1012.40 1012.67 1012.93 1012.87 1013.39 1013.71 1014.50 1014.90 1015.33 1015.77 1016.30 1016.80 1017.23 1017.40 1017.24 1017.26 1017.37 1017.46 1017.51 1017.48 1017.56 1017.75 1017.87 1018.14 1018.68 1019.49 1019.74 1020.25 1020.68 1020.83 1020.76 1020.90 1020.98 1020.90 1020.85 1020.88 1021.09 1021.07 1020.99 1020.82
1011.81 1012.06 1012.23 1012.39 1012.40 1012.71 1012.87 1013.36 1014.09 1014.35 1014.87 1015.30 1015.72 1016.10 1016.28 1016.85 1018.02 1018.20 1018.08 1017.74 1017.69 1017.73 1017.84 1017.96 1018.02 1018.15 1018.26 1018.83 1019.69 1020.17 1020.58 1020.95 1021.30 1021.26 1021.38 1021.45 1021.34 1021.37 1021.39 1021.57 1021.64 1021.60 1021.53
1011.88 1012.03 1012.09 1012.24 1012.43 1012.51 1012.87 1013.35 1013.75 1014.20 1014.44 1015.09 1015.92 1016.20 1016.07 1017.09 1017.86 1018.96 1018.73 1018.62 1018.07 1017.97 1018.18 1018.28 1018.31 1018.28 1018.34 1018.93 1019.70 1020.38 1020.81 1021.32 1021.76 1021.68 1021.85 1021.89 1021.81 1021.80 1021.82 1022.03 1022.16 1022.14 1022.14
1011.65 1011.67 1011.79 1011.88 1012.09 1012.36 1012.84 1013.30 1013.59 1013.86 1014.16 1014.67 1015.15 1016.10 1016.03 1016.67 1017.35 1018.26 1018.92 1018.93 1018.67 1018.18 1018.12 1018.49 1018.37 1018.39 1018.27 1019.37 1020.11 1020.42 1020.96 1021.65 1022.08 1022.16 1022.20 1022.28 1022.29 1022.24 1022.34 1022.47 1022.65 1022.73 1022.74
1011.71 1011.73 1011.72 1011.66 1011.72 1011.97 1012.58 1013.12 1013.45 1013.66 1014.00 1014.61 1015.06 1015.42 1016.10 1016.43 1016.65 1016.68 1017.48 1018.63 1018.92 1018.48 1018.29 1018.22 1018.21 1018.11 1018.80 1019.29 1020.36 1020.79 1021.16 1021.83 1022.39 1022.60 1022.56 1022.71 1022.65 1022.71 1022.81 1022.97 1023.19 1023.26 1023.28
1011.16 1011.24 1011.52 1011.79 1011.85 1012.05 1012.42 1012.80 1013.20 1013.43 1013.74 1014.05 1014.82 1015.38 1015.26 1015.54 1016.47 1016.55 1016.86 1018.17 1018.48 1018.44 1018.23 1017.99 1018.08 1018.40 1018.99 1019.42 1020.41 1021.10 1021.44 1022.11 1022.77 1023.06 1023.09 1023.29 1023.22 1023.27 1023.36 1023.46 1023.65 1023.74 1023.78
1011.51 1011.39 1011.30 1011.54 1011.96 1011.93 1012.01 1012.52 1013.05 1013.01 1013.48 1013.81 1014.43 1014.92 1015.48 1015.47 1015.92 1016.51 1016.72 1017.86 1017.99 1017.62 1018.43 1017.70 1018.27 1018.67 1019.20 1019.79 1020.66 1021.19 1021.73 1022.30 1022.86 1023.21 1023.49 1023.69 1023.75 1023.86 1023.90 1023.88 1023.98 1024.09 1024.18
1011.73 1011.69 1011.57 1011.34 1011.44 1011.92 1012.05 1012.17 1012.58 1013.04 1013.50 1013.79 1014.06 1014.68 1015.23 1015.30 1015.93 1016.33 1016.67 1017.38 1018.06 1018.52 1018.71 1018.17 1018.59 1018.88 1019.34 1020.12 1020.79 1021.41 1021.82 1022.42 1022.90 1023.30 1023.88 1024.07 1024.10 1024.22 1024.28 1024.40 1024.45 1024.52 1024.68
1011.90 1011.66 1011.24 1011.02 1010.98 1011.39 1012.13 1012.02 1012.31 1012.89 1013.18 1013.59 1013.72 1014.19 1014.87 1015.16 1015.58 1016.22 1016.38 1016.82 1017.52 1018.56 1018.92 1018.66 1018.92 1019.43 1019.48 1020.02 1020.77 1021.57 1022.10 1022.69 1023.12 1023.57 1024.12 1024.22 1024.36 1024.54 1024.65 1024.85 1024.93 1024.89 1024.99
1011.64 1011.55 1011.18 1011.00 1011.02 1011.25 1012.00 1012.22 1012.28 1012.70 1012.93 1013.27 1013.53 1013.90 1014.65 1014.79 1015.08 1015.60 1016.11 1016.72 1017.32 1018.10 1018.08 1018.19 1018.91 1019.75 1020.31 1020.40 1021.05 1022.11 1022.82 1023.03 1023.39 1023.70 1024.04 1024.53 1024.68 1024.74 1025.00 1025.21 1025.35 1025.28 1025.27
1012.19 1011.82 1011.34 1011.05 1010.98 1011.28 1011.64 1011.82 1012.01 1012.33 1012.94 1013.39 1013.41 1013.62 1014.02 1014.27 1014.61 1015.04 1015.64 1016.26 1016.90 1017.51 1017.59 1018.29 1018.42 1019.54 1020.59 1020.73 1021.53 1022.13 1023.30 1024.04 1024.03 1023.91 1024.17 1024.42 1024.71 1024.86 1025.13 1025.31 1025.61 1025.69 1025.62
1012.19 1011.77 1011.25 1010.95 1010.83 1010.89 1011.02 1011.42 1012.11 1012.59 1013.20 1013.71 1013.80 1013.84 1013.83 1013.78 1014.22 1014.61 1014.76 1015.50 1016.12 1016.45 1016.92 1017.71 1018.30 1018.66 1020.46 1021.11 1021.38 1022.05 1023.35 1024.03 1024.22 1024.45 1024.38 1024.56 1024.83 1025.09 1025.45 1025.34 1025.74 1025.72 1025.84
1012.34 1011.60 1011.03 1010.69 1010.63 1010.93 1010.88 1011.42 1012.08 1012.54 1013.15 1013.54 1013.57 1013.62 1013.81 1013.58 1013.70 1014.02 1014.36 1014.98 1015.63 1015.99 1016.60 1017.27 1017.97 1018.62 1019.70 1020.98 1021.62 1021.77 1021.97 1022.64 1023.67 1024.87 1024.96 1024.99 1025.06 1025.27 1025.51 1025.77 1026.11 1026.09 1026.24
1012.31 1011.86 1011.45 1011.14 1010.80 1010.88 1011.14 1011.38 1011.95 1012.47 1012.88 1013.25 1013.58 1013.69 1013.89 1013.86 1013.68 1013.80 1014.17 1014.70 1015.18 1015.71 1016.16 1017.00 1017.81 1018.50 1019.07 1020.70 1021.26 1021.95 1022.16 1022.50 1023.14 1023.84 1024.94 1025.51 1025.71 1026.07 1026.10 1026.19 1026.29 1026.53 1026.59
1012.55 1012.16 1011.90 1011.90 1011.69 1011.53 1011.58 1011.91 1012.34 1012.91 1013.34 1013.58 1013.80 1013.82 1014.05 1014.09 1013.92 1014.20 1014.49 1014.76 1015.20 1015.81 1016.86 1017.15 1017.66 1018.52 1019.04 1020.07 1020.98 1021.53 1021.77 1022.50 1023.17 1023.53 1024.58 1025.48 1026.11 1026.73 1026.61 1026.49 1026.59 1026.77 1026.72
Wind_Speed
7 11 16 15 15 14 11 10 10 12 12 13 11 10 11 10 11 11 12 14 14 15 16 17 19 18 18 18 16 18 21 23 23 23 22 21 22 25 24 22 22 20 27
14 12 17 15 16 15 13 12 12 11 12 11 10 7 12 12 11 10 12 14 15 17 17 17 18 18 17 16 15 14 19 22 22 21 18 18 21 23 24 23 23 23 28
16 14 14 16 14 15 14 12 12 12 10 11 9 9 11 11 13 11 11 15 16 16 18 18 17 16 16 17 17 20 23 24 23 21 16 11 14 23 25 23 24 25 28
16 14 13 16 14 14 14 13 13 13 13 11 10 10 9 13 13 14 13 15 16 17 17 17 15 14 15 15 17 21 24 26 23 19 10 11 14 24 25 26 25 26 27
14 14 13 17 15 13 13 13 13 14 14 13 11 10 8 11 13 13 14 14 15 16 17 16 14 14 13 16 20 23 26 25 21 14 10 10 10 20 25 25 23 25 25
12 13 16 17 15 14 15 15 15 15 14 14 13 11 9 9 12 13 14 15 15 16 16 15 15 15 14 17 23 25 26 23 16 10 8 13 12 21 24 25 25 25 25
12 12 16 20 18 16 15 15 16 16 16 14 13 12 12 8 11 13 13 14 15 16 17 16 16 15 16 19 22 25 26 24 12 10 9 11 13 21 23 24 25 27 27
14 13 14 19 19 17 16 16 15 15 16 15 13 11 11 10 12 13 13 14 16 16 16 16 16 16 16 17 22 23 23 21 13 10 10 10 16 21 21 22 24 25 26
3 9 9 11 13 16 15 13 13 15 16 16 14 12 11 10 13 13 13 14 15 16 16 16 16 16 17 22 23 24 23 19 8 6 8 7 20 22 22 23 23 24 26
7 3 6 5 8 7 6 14 12 12 14 15 14 13 13 11 12 12 13 13 15 15 15 16 15 14 15 19 24 25 22 19 9 9 7 9 20 22 22 23 24 25 26
5 6 4 5 5 6 6 6 11 11 13 14 12 8 10 5 5 7 8 12 14 15 15 16 15 11 10 21 23 22 18 7 7 6 6 18 20 22 23 23 23 24 26
3 3 3 5 6 6 5 5 5 5 4 5 5 8 9 8 8 1 8 11 14 16 15 16 14 11 7 8 10 15 7 8 5 7 7 17 20 22 23 23 23 24 25
5 4 6 5 6 6 5 4 2 5 4 4 9 8 10 7 7 6 4 1 4 10 5 7 6 3 4 10 10 9 10 8 5 6 10 17 20 21 23 23 23 23 24
4 4 4 5 5 5 4 3 5 6 7 5 7 9 9 6 6 4 4 5 2 3 5 4 3 3 3 14 14 12 10 7 4 6 8 17 18 21 22 23 23 23 24
3 4 7 7 7 6 6 5 5 6 7 9 12 4 8 9 8 5 3 3 4 3 4 4 4 4 4 14 13 13 12 8 6 4 6 17 17 20 21 22 22 22 23
5 4 5 6 7 6 6 8 6 6 7 8 9 10 9 8 9 10 8 1 4 3 3 5 5 4 5 13 12 12 12 9 7 6 6 7 16 18 20 20 21 21 22
6 6 7 5 6 7 6 8 7 7 7 6 7 10 11 11 7 5 8 4 5 3 5 4 4 5 8 12 14 11 11 10 7 6 6 4 7 15 17 19 19 19 20
7 7 5 4 2 4 6 5 6 7 6 6 7 6 9 7 6 6 8 8 2 4 3 6 6 6 9 11 10 10 10 9 9 8 6 5 4 4 10 15 17 18 18
6 6 7 5 7 3 4 5 5 7 8 6 7 8 9 7 7 5 6 8 11 5 4 3 3 6 8 9 10 8 9 8 8 7 6 6 6 5 4 12 14 15 16
5 7 8 5 6 5 3 4 4 4 4 7 7 6 7 8 9 7 5 7 10 8 5 1 5 2 5 7 9 9 8 6 5 7 6 5 5 6 5 5 4 6 14
9 9 7 4 3 3 2 3 4 5 4 2 5 10 10 8 10 10 7 7 10 7 11 9 5 6 3 5 6 6 5 5 8 7 6 4 5 5 6 5 3 3 5
7 6 6 4 3 3 3 2 3 4 3 3 1 4 7 8 10 10 11 10 12 11 10 7 8 5 3 1 5 4 4 4 3 5 5 6 6 5 5 5 5 5 5
8 7 6 6 6 6 6 4 4 5 4 3 1 2 3 6 9 11 12 10 11 11 11 10 9 11 5 2 7 6 4 4 3 2 2 3 6 3 3 6 6 5 5
6 7 6 5 5 4 7 6 7 5 4 3 4 2 2 3 9 12 13 12 11 11 12 11 8 8 9 9 3 1 2 6 5 2 1 2 4 5 5 4 5 4 4
5 5 8 9 2 6 6 7 5 4 3 2 1 5 5 2 4 6 10 14 8 5 11 12 10 11 8 4 3 2 1 3 3 4 3 1 4 4 4 4 5 4 4
6 6 7 9 9 7 3 6 7 7 5 4 3 4 3 3 4 5 8 11 10 9 4 8 9 9 9 6 3 3 3 4 3 4 4 3 5 2 2 3 4 3 2
Wind_Direction
159 158 156 156 153 148 146 140 125 109 110 112 108 112 104 94 89 91 93 97 98 96 95 97 92 90 84 84 81 81 78 77 73 68 63 60 59 59 56 58 57 56 58
151 157 157 160 159 156 154 140 130 116 116 111 118 112 110 103 100 99 102 102 105 101 97 95 94 94 85 77 71 79 87 81 75 71 62 56 62 60 60 58 61 61 62
151 156 158 159 162 161 157 148 140 132 128 128 133 113 116 108 109 99 108 111 104 103 98 95 94 92 87 73 72 77 82 75 65 55 57 59 60 63 61 60 60 62 62
152 154 157 160 163 164 161 156 149 142 139 137 141 128 121 116 110 109 101 103 108 106 102 99 97 92 80 66 90 85 80 75 69 62 57 56 63 64 63 63 65 64 61
150 154 159 158 163 162 159 155 154 150 144 143 145 137 120 119 116 111 110 107 109 108 105 104 104 95 73 71 91 85 81 75 66 52 53 60 64 69 67 66 64 66 64
151 152 158 160 165 167 165 163 161 158 150 147 146 143 137 120 126 118 114 112 114 112 109 111 109 96 80 84 87 87 84 77 62 49 46 60 66 71 69 68 67 67 67
155 160 161 166 169 172 172 169 169 166 155 151 149 148 146 137 126 122 120 123 120 118 118 118 114 100 96 91 91 90 88 79 64 50 47 62 64 68 70 65 69 68 68
155 159 166 170 169 174 178 180 173 169 160 154 148 146 147 146 136 130 128 127 124 122 123 125 117 108 103 98 97 93 91 85 72 57 51 61 67 69 66 63 67 69 68
89 149 165 175 172 175 175 183 175 171 168 157 150 150 147 141 140 136 132 131 127 126 130 134 120 116 98 104 96 93 88 85 81 79 72 74 76 75 73 70 67 68 69
49 128 147 170 161 170 177 181 185 181 180 162 153 149 135 130 137 140 136 134 129 128 129 128 124 120 105 100 98 91 84 77 73 71 76 83 82 79 76 75 74 73 72
67 62 109 140 173 185 179 194 186 185 184 176 157 151 116 116 122 142 140 139 135 134 134 132 129 111 98 93 101 96 89 77 74 82 81 84 86 84 81 79 79 80 79
92 141 113 160 172 175 175 163 159 152 138 156 118 89 64 47 22 295 151 146 143 142 143 134 137 126 112 98 100 92 96 86 79 90 91 89 90 89 86 83 81 80 81
209 150 164 143 178 168 139 119 112 138 139 141 123 112 97 81 35 19 1 161 160 150 134 139 144 113 161 108 111 108 103 91 83 95 95 96 96 93 91 89 86 84 82
124 191 192 163 143 145 122 131 142 157 162 141 139 133 111 87 68 359 353 351 220 149 148 153 152 174 223 115 120 116 107 103 94 103 104 101 99 98 96 94 91 88 85
220 214 183 174 166 164 150 143 150 168 175 160 145 182 131 127 145 172 233 321 324 234 162 172 169 198 146 129 122 118 114 105 100 85 108 105 100 100 98 96 94 91 89
264 264 211 181 178 165 157 146 164 168 165 166 153 166 163 161 169 171 150 165 300 290 227 173 177 136 96 130 126 121 114 106 99 88 107 102 103 102 100 98 95 93 92
225 166 184 213 170 179 183 156 166 170 167 162 159 170 177 173 187 151 135 139 261 265 226 146 105 102 98 125 125 128 117 117 108 97 84 66 82 94 99 100 98 96 94
358 321 125 115 249 203 171 170 169 167 176 164 157 173 200 205 132 145 147 162 154 338 317 128 123 113 113 121 129 132 129 126 122 114 105 90 76 69 95 103 103 100 97
356 338 292 149 117 230 223 188 166 162 172 174 168 188 200 198 147 149 168 161 159 149 288 158 104 126 120 122 131 129 134 135 135 128 119 114 104 95 85 100 103 103 102
350 327 276 213 143 102 274 213 169 166 167 166 180 179 185 193 177 168 174 159 150 166 186 223 116 57 122 123 119 121 132 128 129 134 133 131 126 118 109 101 98 109 109
356 340 278 175 209 125 212 184 180 164 191 164 160 181 185 188 189 174 181 154 157 179 178 167 120 118 69 115 103 86 59 101 127 134 142 140 143 139 133 124 114 93 101
326 319 340 242 218 197 163 160 165 148 128 115 104 170 189 177 186 175 180 167 172 182 149 164 139 117 88 60 123 94 99 31 38 141 140 154 170 160 155 155 138 132 121
336 323 300 263 226 213 174 112 89 81 73 77 166 209 223 192 179 189 179 163 169 163 159 147 143 127 135 71 137 132 107 186 140 11 173 164 154 154 135 161 165 162 153
329 324 350 330 219 209 154 132 146 157 152 187 196 143 157 205 185 186 178 167 177 157 152 151 143 135 128 154 118 112 131 146 152 148 25 216 140 135 131 95 106 103 142
347 8 17 23 28 136 147 153 147 141 110 111 198 153 139 89 130 152 175 159 123 127 145 147 143 148 133 137 142 143 101 86 104 128 148 111 56 24 52 85 86 75 63
13 29 54 37 31 19 116 109 116 129 160 168 191 170 161 124 81 88 154 151 137 114 167 137 134 150 148 131 138 170 135 152 183 142 113 99 126 10 22 54 75 90 104